DW1880 Weather Reports


time (UTC)temp
F
wind
direction
speed
knots
gust
knots
rain 1hr
in
rain 24hr
in
rain mn
in
humidity
%
barometer
mb
20260906113504 61 36 0.0 0.0 0.00 0.00 0.00 94 1019.0
20260906110504 61 36 0.0 0.0 0.00 0.00 0.00 93 1018.1
20260906110004 61 36 0.0 0.0 0.00 0.00 0.00 93 1018.1
20260906105504 61 36 0.0 0.0 0.00 0.00 0.00 94 1018.2
20260906105005 61 36 0.0 0.0 0.00 0.00 0.00 94 1018.2
20260906104005 61 36 0.0 0.0 0.00 0.00 0.00 94 1018.2
20260906103005 61 36 0.0 0.0 0.00 0.00 0.00 94 1018.2
20260906102005 61 36 0.0 0.0 0.00 0.00 0.00 94 1018.3
20260906095504 62 36 0.0 0.0 0.00 0.00 0.00 95 1018.1
20260906093504 62 36 0.0 0.0 0.00 0.00 0.00 95 1018.3
20260906093004 62 36 0.0 0.0 0.00 0.00 0.00 95 1018.2
20260906090504 62 36 0.0 0.0 0.00 0.00 0.00 95 1018.3
20260906085004 63 36 0.0 0.0 0.00 0.00 0.00 96 1018.0
20260906084504 63 36 0.0 0.0 0.00 0.00 0.00 96 1018.0
20260906083504 63 36 0.0 0.0 0.00 0.00 0.00 95 1018.1
20260906083004 63 36 0.0 0.0 0.00 0.00 0.00 95 1018.1
20260906081505 63 36 0.0 0.0 0.00 0.00 0.00 95 1018.1
20260906081005 63 36 0.0 0.0 0.00 0.00 0.00 95 1018.0
20260906080504 63 36 0.0 0.0 0.00 0.00 0.00 95 1017.9
20260906075504 63 36 0.0 0.0 0.00 0.00 0.00 95 1018.0
20260906075004 64 36 0.0 0.0 0.00 0.00 0.00 95 1018.0
20260906074504 64 36 0.0 0.0 0.00 0.00 0.00 95 1018.0
20260906073504 64 36 0.0 0.0 0.00 0.00 0.00 95 1018.0
20260906073004 64 36 0.0 0.0 0.00 0.00 0.00 95 1018.0
20260906072504 64 36 0.0 0.0 0.00 0.00 0.00 94 1018.1
20260906065004 64 36 0.0 0.0 0.00 0.00 0.00 94 1018.2
20260906063005 64 36 0.0 0.0 0.00 0.00 0.00 94 1018.2
20260906061504 64 36 0.0 0.0 0.00 0.00 0.00 94 1018.4
20260906061005 64 36 0.0 0.0 0.00 0.00 0.00 94 1018.3
20260906055504 65 36 0.0 0.0 0.00 0.00 0.00 94 1018.2
20260906055004 65 36 0.0 0.0 0.00 0.00 0.00 94 1018.2
20260906054504 65 36 0.0 0.0 0.00 0.00 0.00 93 1018.2
20260906054005 65 36 0.0 0.0 0.00 0.00 0.00 93 1018.0
20260906053505 65 36 0.0 0.0 0.00 0.00 0.00 94 1018.1
20260906053004 65 36 0.0 0.0 0.00 0.00 0.00 94 1018.1
20260906051004 65 36 0.0 0.0 0.00 0.00 0.00 93 1018.2
20260906050004 66 36 0.0 0.0 0.00 0.00 0.00 94 1018.3
20260906045504 66 36 0.0 0.0 0.00 0.00 0.00 93 1018.1
20260906044504 66 36 0.0 0.0 0.00 0.00 0.00 93 1017.9
20260906043504 66 36 0.0 0.0 0.00 0.00 0.00 93 1017.9
20260906041005 67 36 0.0 0.0 0.00 0.00 0.00 93 1017.6
20260906040503 67 36 0.0 0.0 0.00 0.00 0.00 93 1017.4
20260906034504 67 36 0.0 0.0 0.00 0.00 0.00 92 1017.3
20260906034005 67 36 0.0 0.0 0.00 0.00 0.00 92 1017.3
20260906032504 68 36 0.0 0.0 0.00 0.00 0.00 92 1017.4
20260906032004 68 36 0.0 0.0 0.00 0.00 0.00 91 1017.3
20260906030006 68 36 0.0 0.0 0.00 0.00 0.00 91 1017.2
20260906025506 68 36 0.0 0.0 0.00 0.00 0.00 91 1017.2
20260906023506 69 36 0.0 0.9 0.00 0.00 0.00 90 1017.0
20260906020006 70 58 0.9 2.6 0.00 0.00 0.00 89 1016.2
20260906014505 71 43 0.0 2.6 0.00 0.00 0.00 88 1016.1
20260906014005 71 38 0.9 2.6 0.00 0.00 0.00 87 1016.1
20260906013006 71 66 0.9 2.6 0.00 0.00 0.00 87 1015.9
20260906012506 72 27 0.0 4.3 0.00 0.00 0.00 87 1016.1
20260906010005 72 47 1.7 2.6 0.00 0.00 0.00 87 1016.0
20260906003006 73 47 1.7 4.3 0.00 0.00 0.00 85 1016.0
20260906001506 74 39 1.7 2.6 0.00 0.00 0.00 84 1016.2
20260906000006 75 45 1.7 6.1 0.00 0.00 0.00 82 1016.3
20260905235506 75 37 1.7 4.3 0.00 0.00 0.00 81 1016.2
20260905233006 76 42 1.7 4.3 0.00 0.00 0.00 81 1016.0
20260905230005 77 11 1.7 2.6 0.00 0.00 0.00 79 1016.0
20260905225006 76 33 0.9 2.6 0.00 0.00 0.00 80 1016.0
20260905224006 77 32 1.7 2.6 0.00 0.00 0.00 77 1015.9
20260905223006 77 13 0.9 2.6 0.00 0.00 0.00 76 1015.8
20260905222006 78 49 2.6 5.2 0.00 0.00 0.00 75 1015.6
20260905220506 77 27 1.7 2.6 0.00 0.00 0.00 74 1015.7
20260905213005 78 16 1.7 5.2 0.00 0.00 0.00 74 1015.8
20260905212505 78 68 0.9 2.6 0.00 0.00 0.00 75 1015.8
20260905212006 78 46 1.7 4.3 0.00 0.00 0.00 75 1015.9
20260905211506 78 355 1.7 2.6 0.00 0.00 0.00 74 1016.0
20260905211005 78 27 1.7 2.6 0.00 0.00 0.00 74 1016.1
20260905210005 77 9 0.9 2.6 0.00 0.00 0.00 78 1015.8
20260905205007 76 12 0.9 1.7 0.00 0.00 0.00 79 1015.8
20260905202507 77 29 1.7 2.6 0.00 0.00 0.00 80 1015.7
20260905201005 78 15 2.6 4.3 0.00 0.00 0.00 79 1015.8
20260905200506 77 32 1.7 2.6 0.00 0.00 0.00 79 1015.8
20260905200005 76 22 0.9 5.2 0.00 0.00 0.00 81 1015.9
20260905195506 77 0 2.6 6.1 0.00 0.00 0.00 79 1015.9
20260905194006 77 48 1.7 2.6 0.00 0.00 0.00 80 1015.9
20260905193505 77 38 0.9 6.1 0.00 0.00 0.00 81 1016.1
20260905192006 76 38 1.7 4.3 0.00 0.00 0.00 81 1016.2
20260905191005 76 37 0.9 5.2 0.00 0.00 0.00 80 1016.2
20260905190506 76 30 0.9 2.6 0.00 0.00 0.00 82 1016.3
20260905185505 76 47 0.9 2.6 0.00 0.00 0.00 81 1016.4
20260905181505 75 61 2.6 5.2 0.00 0.00 0.00 82 1016.4
20260905180006 75 34 1.7 4.3 0.00 0.00 0.00 83 1016.5
20260905175006 74 36 2.6 6.1 0.00 0.00 0.00 84 1016.6
20260905174505 75 26 2.6 6.1 0.00 0.00 0.00 83 1016.4
20260905173006 75 46 2.6 7.0 0.00 0.00 0.00 84 1016.4
20260905172506 75 28 2.6 4.3 0.00 0.00 0.00 83 1016.5
20260905171506 76 38 1.7 4.3 0.00 0.00 0.00 84 1016.4
20260905165507 75 39 1.7 4.3 0.00 0.00 0.00 84 1016.5
20260905165006 75 47 0.9 2.6 0.00 0.00 0.00 85 1016.6
20260905164006 75 40 1.7 4.3 0.00 0.00 0.00 85 1016.5
20260905163005 73 19 0.9 4.3 0.00 0.00 0.00 88 1016.5
20260905161505 73 24 1.7 4.3 0.00 0.00 0.00 89 1016.5
20260905161005 73 40 1.7 2.6 0.00 0.00 0.00 90 1016.5
20260905160505 73 40 1.7 2.6 0.00 0.00 0.00 90 1016.5
20260905155505 72 37 2.6 4.3 0.00 0.00 0.00 90 1016.4
20260905155005 72 32 1.7 2.6 0.00 0.00 0.00 90 1016.4
20260905154505 72 29 1.7 2.6 0.00 0.00 0.00 90 1016.5
20260905154006 72 27 0.9 2.6 0.00 0.00 0.00 91 1016.4
20260905153506 72 38 0.9 2.6 0.00 0.00 0.00 92 1016.5
20260905153005 72 37 1.7 2.6 0.00 0.00 0.00 91 1016.4
20260905152006 71 49 1.7 2.6 0.00 0.00 0.00 92 1016.4
20260905151005 71 49 1.7 2.6 0.00 0.01 0.00 92 1016.2
20260905145506 71 44 0.0 4.3 0.00 0.01 0.00 92 1016.1
20260905144005 71 48 2.6 4.3 0.00 0.22 0.00 92 1015.9
20260905143505 71 38 1.7 4.3 0.00 0.30 0.00 92 1015.7
20260905142505 71 42 2.6 4.3 0.00 0.59 0.00 91 1015.6
20260905141005 71 48 2.6 4.3 0.00 0.69 0.00 92 1015.6
20260905140505 71 42 1.7 5.2 0.00 0.73 0.00 92 1015.5
20260905133505 71 10 1.7 5.2 0.00 1.27 0.00 94 1015.1
20260905132505 71 40 2.6 4.3 0.00 1.40 0.00 96 1015.1
20260905132005 71 52 3.5 5.2 0.00 1.40 0.00 96 1015.0
20260905130505 70 41 1.7 2.6 0.00 1.40 0.00 97 1015.0
20260905125507 70 60 1.7 2.6 0.00 1.40 0.00 97 1015.0
20260905121006 69 40 1.7 2.6 0.00 1.40 0.00 97 1014.4
20260905115006 69 28 1.7 2.6 0.00 1.40 0.00 97 1014.3
20260905114005 69 16 0.9 2.6 0.00 1.40 0.00 97 1014.1